METEOR 2-5 DEB

Satellite information

Favourite Embed

Satellite Type and Status

DEBRISIN ORBIT

Key statistics

Satellite METEOR 2-5 DEB at a glance.

Uptime

16846

Days in orbit

Revolutions

≈ 14.4

Per day

Orbit

LEO

Low Earth Orbit

Inclination

81.2

Latest

Satellite identification and parameters

Extended collection of information and parameters for METEOR 2-5 DEB.

Object identification

Identified? True

Debris? True

Object name: METEOR 2-5 DEB

International designator: 1979-095BW

Object number (NORAD): 38276

Object ID (CCSDS): 38276

Country: COMMONWEALTH OF INDEPENDENT STATES (CIS)

Current information (Y/N): Y

RCS size: SMALL

Orbital parameters

Period: 100.039 minutes

Inclination: 81.1854 deg

SMA: 7138.514 km

Apoapsis: 773.772 km

Periapsis: 746.986 km

RAAN: 322.9289 deg

Eccentricy: 0.00187611

Argument of periapsis: 215.4392 deg

Mean anomaly: 318.1289 deg

Mean motion: 14.39431611 rev/day

Mean motion (dot): 0.00012846 rev/day2

B* drag term: 0.0041097927 1/REarth

Two-line elements (TLE)

Creation date: Dec. 11, 2025, 3:54 a.m.

Reference frame: TEME

Reference center: EARTH

Epoch: Dec. 10, 2025, 4:42 p.m. UTC

TLE line 0: 0 METEOR 2-5 DEB

TLE line 1: 1 38276U 79095BW 25344.69587513 .00012846 00000-0 41098-2 0 9993

TLE line 2: 2 38276 81.1854 322.9289 0018761 215.4392 318.1289 14.39431611724164

Live tracking on map

Real-time ground track for satellite METEOR 2-5 DEB.

In-orbit conjunctions

A list of the most updated potential collisions computed for object METEOR 2-5 DEB.

Target Orbit TCA Probability of collision Miss distance Type
NOAA 16 DEB SSO 2025-07-21 07:22:16 0.0002177908 77.0 (m) DEBRIS
SL-6 R/B SSO 2024-08-08 21:28:00 0.001371405 47.0 (m) ROCKET BODY

Associated space launch

Second generation soviet meteorological satellite

METEOR 2-5 DEB was lifted into orbit during the mission ‘Vostok 8A92M | Meteor-2 5’, on board a Vostok 8A92M space rocket.

The launch took place on Oct. 31, 1979, 9:25 a.m. from 43/4 (43R).

For more information about the launch, click the button.

Launch to space Vostok 8A92M | Meteor-2 5
Vostok 8A92M | Meteor-2 5

Agency: N/A

Status: Launch Successful

Launch date: Oct. 31, 1979, 9:25 a.m. UTC

Rocket: Vostok 8A92M

Launch pad: 43/4 (43R)

Location: Plesetsk Cosmodrome, Russian Federation

...

Latest news about this satellite

There are no fresh news available about this satellite. Check back as we update our databases every day.


Newsletter sign-up

Weekly statistics, charts and insights to help you stay on top of the space industry.